Regional Weather Roundup
Issued by NWS

Home | Current Version | Previous Version | Text Only | Print | Product List | Glossary On
Versions: 1 2 3 4 5 6 7 8 9 10 11 12 13 14 15 16 17 18 19 20 21 22 23 24 25 26 27 28 29 30 31 32 33 34 35 36 37 38 39 40 41 42 43 44 45 46 47 48 49 50
000
ASCA44 KEWX 212120
RWRMX

LATIN AMERICA AND CARIBBEAN REGIONAL WEATHER ROUNDUP
NATIONAL WEATHER SERVICE AUSTIN/SAN ANTONIO TX
400 PM CDT TUE OCT 21 2014

NOTE: "FAIR" INDICATED FEW OR NO CLOUDS BELOW 12,000 FEET WITH NO
SIGNIFICANT WEATHER AND/OR OBSTRUCTIONS TO VISIBILITY.

BAJA CALIFORNIA

CITY           SKY/WX    TMP DP  RH WIND       PRES   REMARKS
LORETO         MOSUNNY   82  64  54 NE12      29.74F
LA PAZ         SUNNY     86  57  37 N12       29.76
MEXICALI       SUNNY     91  46  21 CALM      29.76
S.J. DEL CABO  MOSUNNY   86  64  48 S12       29.77F
TIJUANA        SUNNY     75  57  53 W12       29.88F

NORTHWESTERN MEXICO

CITY           SKY/WX    TMP DP  RH WIND       PRES   REMARKS
CULIACAN       SUNNY     93  66  40 NW5       29.74  HX  96
DURANGO        PTSUNNY   79  48  34 E8        30.01F
GUAYMAS        MOSUNNY   88  70  55 SW13      29.70  HX  92
HERMOSILLO     SUNNY     93  52  24 S5        29.79  HX  90
CD. JUAREZ     PTSUNNY   73  57  56 CALM      29.99
LOS MOCHIS     MOSUNNY   86  82  89 W12       29.74F HX 105
OBREGON        MOSUNNY   93  52  24 S7        29.70  HX  90

NORTHEASTERN MEXICO

CITY           SKY/WX    TMP DP  RH WIND       PRES   REMARKS
CHIHUAHUA      PTSUNNY   64  59  82 W5        30.05
MATAMOROS      PTSUNNY   82  73  74 NE9       29.92
MONCLOVA       CLOUDY    72  66  83 E6        29.95
MONTERREY      PTSUNNY   73  68  83 E3        29.94F
NUEVO LAREDO   LGT RAIN  77  72  83 E12       29.95S
PIEDRAS NEGRAS PTSUNNY   79  66  65 SE7       29.97F
REYNOSA        TSTM      68  66  94 NE10      29.94  VSB 3/4
SALTILLO       PTSUNNY   68  61  77 N14       30.07F
TORREON        PTSUNNY   81  55  41 E7        29.93F
CD. VICTORIA   CLOUDY    73  68  83 W6        29.93

WESTERN MEXICO

CITY           SKY/WX    TMP DP  RH WIND       PRES   REMARKS
AGUASCALIENTES PTSUNNY   73  48  40 NE13      30.07
COLIMA         LGT RAIN  75  73  94 SW9       29.82F
DEL BAJIO      PTSUNNY   75  52  43 E7        30.10
GUADALAJARA    PTSUNNY   79  55  44 NE3       29.97
MANZANILLO     MOSUNNY   86  73  66 W23       29.65F HX  93
MAZATLAN       SUNNY     88  66  48 W14       29.69F HX  90
P. VALLARTA    MOSUNNY   84  75  74 SW8       29.70F HX  92
URUAPAN        PTSUNNY   72  64  78 S12       29.99F THUNDER
ZACATECAS      CLOUDY    70  52  52 E12       30.12F

CENTRAL MEXICO

CITY           SKY/WX    TMP DP  RH WIND       PRES   REMARKS
CUERNAVACA     PTSUNNY   81  63  54 CALM      29.92F
MEXICO CITY    CLOUDY    66  50  55 N7        30.16F
MORELIA        PTSUNNY   75  57  53 N5        30.02
POZA RICA      DRIZZLE   75  73  94 NW12      29.87S FOG
PUEBLA         PTSUNNY   68  54  60 N12       30.14F
QUERETARO      CLOUDY    70  55  60 NE13      30.12F
S. LUIS POTOSI CLOUDY    64  54  68 E9        30.13F
TAMPICO        CLOUDY    81  72  74 N16       29.84F
TOLUCA         PTSUNNY   66  45  45 NE17      30.19F

SOUTHERN MEXICO

CITY           SKY/WX    TMP DP  RH WIND       PRES   REMARKS
ACAPULCO       PTSUNNY   84  77  79 SW9       29.70F HX  94
B. DE HUATULCO RAIN      77  75  94 SE12      29.79
OAXACA         PTSUNNY   75  61  60 NE6       29.97F
P. ESCONDIDO   PTSUNNY   84  77  79 S9        29.86F HX  94
VERACRUZ       PTSUNNY   84  70  61 N8        29.71F
ZIHUATANEJO    PTSUNNY   86  73  66 CALM      29.74S HX  93

YUCATAN PENINSULA

CITY           SKY/WX    TMP DP  RH WIND       PRES   REMARKS
CAMPECHE       CLOUDY    81  79  94 N12       29.68F
CANCUN         LGT RAIN  75  75 100 SE2       29.78S
CHETUMAL       MOSUNNY   86  77  74 SE14      29.66F HX  97
CD. DEL CARMEN CLOUDY    82  75  78 CALM      29.68
COZUMEL        CLOUDY    73  73 100 E8        29.75F
MERIDA         CLOUDY    79  75  89 NE12      29.71S
MINATITLAN     PTSUNNY   81  72  74 CALM      29.69
TAPACHULA      CLOUDY    77  75  94 CALM      29.78F
TUX. GUTIERREZ CLOUDY    75  72  88 E7        29.80F
VILLAHERMOSA   CLOUDY    82  73  74 CALM      29.72F

CENTRAL AMERICA

CITY           SKY/WX    TMP DP  RH WIND       PRES   REMARKS
BELIZE CITY    MOSUNNY   86  75  70 SE5       29.67F HX  95
MANAGUA        DRIZZLE   79  75  89 S5        29.74S

CARIBBEAN

CITY           SKY/WX    TMP DP  RH WIND       PRES   REMARKS
ARUBA          MOSUNNY   86  77  74 E17       29.77S HX  97
KINGSTON       PTSUNNY   84  77  79 S10       29.83S HX  94
NASSAU         PTSUNNY   82  72  69 S3        29.91F
SAN JUAN       MOSUNNY   84  75  74 NE15      29.89S HX  92
SANTO DOMINGO  MOSUNNY   86  73  66 S7        29.86S HX  93
ST. CROIX      MOSUNNY   84  73  70 E9        29.90F HX  91
ST. KITTS      PTCLDY    82  73  74 NE7       29.89S
ST. MAARTEN    PTCLDY    84  72  65 E8        29.89S

$$




USA.gov is the U.S. government's official web portal to all federal, state and local government web resources and services.